Location: Unspecified
(49.2170°N, 0.0000°E)
Time: 15:07:54
(UTC+00:00)

Tiros 1 despin weight - Pass Details

Date: 30 January 2021
Orbit: 593 x 642 km, 48.2° (Epoch: 07 March)

Event Time Altitude Azimuth Distance (km) Brightness Sun altitude
Rises 13:27:25 0° 249° (WSW) 2,907 ? 21.3°
Reaches altitude 10° 13:29:46 10° 247° (WSW) 1,993 ? 21.2°
Maximum altitude 13:34:18 65° 166° (SSE) 680 ? 20.9°
Drops below altitude 10° 13:38:47 10° 85° (E) 1,966 ? 20.6°
Sets 13:41:04 0° 82° (E) 2,863 ? 20.5°
